Weather in Turgay

Kazakhstan     49˚37′56″N   63˚29′30″E
temp.,
°C
wind,
m/s
gust,
m/s
humid.,
%
clouds,
%
prec.,
mm/h
press.,
hPa
HPBL,
m
3 december, thu
thu300:00−18˚nne58950 0.0 1035146
03:00−18˚nne47960 0.0 1034136
06:00−19˚n46960 0.0 1034105
09:00−19˚n479734 0.0 1034132
12:00−17˚nne579343 0.0 1034260
15:00−16˚nne469177 0.0 1033329
18:00−17˚n469688 0.0 1034106
21:00−18˚nne4797100 0.0 1033130
4 december, fri
fri400:00−19˚nne469584 0.0 1033112
03:00−18˚nne469514 0.0 1033123
06:00−18˚nne489514 0.0 1034150
09:00−17˚nne599359 0.0 1034259
12:00−16˚nne688879 0.1 1035317
15:00−15˚nne698670 0.0 1036353
18:00−17˚nne499055 0.0 1036242
21:00−18˚nne5109233 0.0 1037200
5 december, sat
sat500:00−18˚nne479417 0.0 1037126
03:00−18˚nne499459 0.0 1037217
06:00−16˚nne599179 0.0 1037317
09:00−17˚ne5990100 0.0 1038249
12:00−15˚ne598894 0.0 1038280
15:00−14˚ne588619 0.0 1038323
18:00−16˚nne47929 0.0 1038130
21:00−18˚ne46940 0.0 1039114
6 december, sun
sun600:00−19˚ne48950 0.0 1039156
03:00−20˚ne48940 0.0 1040159
06:00−21˚ne48950 0.0 1040165
09:00−21˚ne48950 0.0 1040161
12:00−20˚ne57910 0.0 1040256
15:00−19˚ne45900 0.0 1040259
18:00−21˚ne44960 0.0 103983
21:00−22˚ne45960 0.0 103990
7 december, mon
mon700:00−22˚nne46950 0.0 103895
03:00−22˚nne44950 0.0 103773
06:00−22˚nne44940 0.0 103679
09:00−22˚nne459327 0.0 103785
12:00−20˚nne359013 0.0 1037142
15:00−17˚n34870 0.0 1036159
18:00−19˚nne23890 0.0 103620
21:00−20˚nne22880 0.0 103720